sat.trackr.live / text

‹ back to catalog

STARLINK-35154

NORAD 65612 · 2025-207W

PAYLOAD ACTIVE UNKNOWN

§ Identity

Operator
Country
US
Launch date
2025-09-13
Launch site
AFWTR
Launch vehicle
Mass (kg)
RCS (m²)

Purposes: comms

External: N2YO · Heavens-Above · Gunter

§ Orbital elements

Epoch: 2026-05-25T02:31:54.414624Z

Period
95.64 min
Inclination
97.4472°
Eccentricity
0.0002629
Mean motion
15.05661005 rev/d
Perigee alt
547.7 km
Apogee alt
551.3 km
Semi-major
6,927.6 km
B*
3.2580e-4
RAAN
213.6797°
Arg perigee
130.9674°
Mean anomaly
229.1781°
Rev number
3,960

§ Raw data

STARLINK-351541 65612U 25207W   26145.10549091  .00004647  00000+0  32580-3 0  99942 65612  97.4472 213.6797 0002629 130.9674 229.1781 15.05661005 39606

JSON: /api/v1/satellites/65612 · /tle

For live sub-satellite position, see the globe view (requires WebGL).

§ Visibility from observer

Set your observer location to see the next 7 days of passes ≥ 10°. The values pass through the URL so the page stays shareable.

No JS? Fill the form by hand. The geolocation button needs JavaScript.